ATLAS 5 CENTAUR DEB, 46601

Orbit data source: Space-Track

ATLAS 5 CENTAUR DEB, 46601 is space debris in HEO originally from a launch on Wed, 17 Oct 2018 UTC launched from the Air Force Eastern Test Range (AFETR). Debris objects in space refer to the collection of defunct objects orbiting the Earth. Examples of debris include non-operational satellites, rocket bodies, and fragments generated from explosions, collisions, or faulty payload assembly.

Loading next visibility...
Identifier
46601, 2018-079BZ
Orbit
HEO
Country
Flag of USUS
Related business
Flag of USUnited Launch Alliance/Lockheed Martin (US)
Manufacturer
ULA Decatur
Mission
Spacecraft
Bus & Motor
Unknown
Mass
Unknown
Launch date (UTC)
2018-10-17 (8 years ago)
Launch vehicle
Unknown
Launch site
Air Force Eastern Test Range (AFETR)
Object type
Payload
Rocket body
Debris
Shape & HBR
Unknown shape, 1.1 m
Radar Cross Section
RCS unknown

Expand to show TLE details & history
Last TLE update: 4 days ago

TLE from 4 days ago
0 ATLAS 5 CENTAUR DEB
1 46601U 18079BZ  26215.82725815 -.00000093  00000-0  00000-0 0  9999
2 46601  13.1393  31.9225 4450878 328.6937  11.0119  1.85719422 42384
Epoch: 2026-08-03T19:51Z
TLE epoch observation values (Epoch: 2026-08-03T19:51:15.104Z)
Latitude
0.00004°
Longitude
141.74046°
Altitude
9,872.642 km
Speed
5.899 km/s
True Right ascension
02h 07m 49s
True Declination
0° 00' 00"
Sunlit
Object was in daylight at epoch
Visualization orbit readout
Latitude
Unknown
Longitude
Unknown
Altitude
Unknown
Speed
Unknown
Apparent Right ascension
Unknown
Apparent Declination
Unknown
Sunlit
N/A
Visualization observer readout
Local Sidereal Time
21:49:47
Azimuth
Unknown
Elevation
Unknown
Doppler factor
Unknown
Orbital elements
Apogee altitude
34,025.727 km
Perigee altitude
9,136.904 km
Semi-major axis
27,959.452 km
Eccentricity
0.44509
Inclination
13.1393°
RAAN
31.9225°
Arg. of periapsis
328.6937°
True anomaly
31.06173°
Mean anomaly
11.0119°
Eccentric anomaly
19.54225°
Mean motion
0.46425 °/min
Orbital period
775.45 mins
BSTAR
0
Loading maneuver chart data...
Computing Atmospheric mass density...

Documentation

Showing up to 5 results
|